[[{"header":{"parameterUnit":"m.s-1","parameterCategory":2,"la1":30.2992,"la2":30.254,"lo1":-89.0895,"lo2":-89.0443,"dy":0.0025,"dx":0.0025,"nx":19,"ny":19,"refTime":"2026-03-22T09:00:00:Z","depth":"0","parameterNumber":2,"parameterNumberName":"U-component_of_CURRENTS"},"data":[0,0,0,-0.3875,-0.3878,-0.3973,-0.3973,-0.3951,-0.3951,0,0,0,0,0,0,0,0,0,0,0,-0.3824,-0.3825,-0.3875,-0.3878,-0.3973,-0.3973,-0.3951,-0.3951,0,0,0,0,0,0,0,0,0,0,0,-0.3824,-0.3825,-0.3826,-0.3878,-0.3973,-0.3973,-0.3952,-0.3911,0,0,0,0,0,0,0,0,0,0,-0.3834,-0.3788,-0.3825,-0.3826,-0.3879,-0.3973,-0.3973,-0.391,-0.3913,-0.3873,0,-0.3894,0,-0.3935,-0.3948,-0.3948,0,0,0,-0.3859,-0.3785,-0.3845,-0.3826,-0.388,-0.3973,-0.3925,-0.3913,-0.3916,-0.3876,-0.3894,-0.3895,-0.3935,-0.3948,-0.3947,-0.3879,-0.3878,0,0,-0.3854,-0.3805,-0.3843,-0.3847,-0.391,-0.3922,-0.3928,-0.3916,-0.3898,-0.3894,-0.3896,-0.3935,-0.3947,-0.3947,-0.3879,-0.3879,0,0,0,-0.3851,-0.38,-0.3862,-0.3846,-0.3883,-0.3925,-0.3932,-0.3898,-0.3929,-0.3896,-0.3934,-0.3947,-0.3947,-0.388,-0.3879,-0.3921,0,0,0,-0.3847,-0.3802,-0.386,-0.3826,-0.3885,-0.3906,-0.3913,-0.3929,-0.393,-0.3934,-0.3947,-0.3946,-0.388,-0.3879,-0.3921,-0.387,0,0,0,-0.3819,-0.3798,-0.3819,-0.3824,-0.3881,-0.3908,-0.3937,-0.393,-0.3953,-0.3948,-0.3946,-0.388,-0.3879,-0.3921,-0.3871,-0.3753,0,0,0,-0.3752,-0.3778,-0.3817,-0.3852,-0.3881,-0.3947,-0.3938,-0.3966,-0.3965,-0.3947,-0.388,-0.3879,-0.3921,-0.3872,-0.3755,-0.3306,-0.3258,0,0,-0.3755,-0.3776,-0.3803,-0.3843,-0.3896,-0.3933,-0.3959,-0.3956,-0.3928,-0.3871,-0.3871,-0.3921,-0.3871,-0.3753,-0.325,-0.3202,0,0,0,-0.3786,-0.3788,-0.3818,-0.3852,-0.392,-0.3937,-0.3963,-0.3963,-0.393,-0.3928,-0.3889,-0.3853,-0.3779,-0.3513,-0.3476,-0.3325,-0.3874,-0.3875,-0.3875,-0.3682,-0.3747,-0.3757,-0.3826,-0.3867,-0.3932,-0.3938,-0.3921,-0.3934,-0.3917,-0.3869,-0.3771,-0.3492,-0.3457,-0.3312,-0.3881,-0.3881,-0.3881,-0.3881,-0.3622,-0.3603,-0.3677,-0.3709,-0.3771,-0.3792,-0.3862,-0.3888,-0.3824,-0.3869,-0.3796,-0.3545,-0.3417,-0.3277,-0.3883,-0.3883,-0.3882,-0.3882,-0.3882,-0.35,-0.3493,-0.3534,-0.3553,-0.3587,-0.3684,-0.3672,-0.3756,-0.3769,-0.3743,-0.3357,-0.335,-0.3233,-0.3687,-0.3687,-0.3686,-0.3685,-0.3685,-0.3684,-0.3328,-0.3374,-0.3336,-0.3386,-0.3385,-0.3431,-0.3539,-0.3503,-0.3339,-0.3281,-0.3277,-0.3124,-0.3708,-0.3724,-0.3673,-0.3675,-0.3677,-0.3678,-0.3679,-0.3124,-0.3165,-0.3091,-0.308,-0.31,-0.3013,-0.3197,-0.2962,-0.2901,-0.2694,-0.2513,-0.3007,-0.2911,-0.2936,-0.2929,-0.2676,-0.2676,-0.2676,-0.2675,-0.2955,-0.2983,-0.2841,-0.2785,-0.2769,-0.2811,-0.2498,-0.2301,-0.2057,-0.1874,-0.203,-0.2003,-0.205,-0.191,-0.1958,-0.1934,-0.1435,-0.1434,-0.1433,-0.2776,-0.277,-0.2598,-0.2599,-0.2592,-0.2525,-0.2099,-0.149,-0.121,-0.1393,-0.1919,-0.1971,-0.1964,-0.205,-0.1866,-0.1945,-0.1921,0,0]},{"header":{"parameterUnit":"m.s-1","parameterCategory":2,"la1":30.2992,"la2":30.254,"lo1":-89.0895,"lo2":-89.0443,"dy":0.0025,"dx":0.0025,"nx":19,"ny":19,"refTime":"2026-03-22T09:00:00:Z","depth":"0","parameterNumber":3,"parameterNumberName":"V-component_of_CURRENTS"},"data":[0,0,0,-0.1182,-0.1179,-0.1021,-0.1021,-0.0871,-0.087,0,0,0,0,0,0,0,0,0,0,0,-0.1245,-0.1244,-0.1182,-0.1179,-0.1022,-0.1021,-0.0871,-0.087,0,0,0,0,0,0,0,0,0,0,0,-0.1245,-0.1244,-0.1244,-0.1178,-0.1022,-0.102,-0.0871,-0.0973,0,0,0,0,0,0,0,0,0,0,-0.1117,-0.1172,-0.1244,-0.1244,-0.1177,-0.1022,-0.102,-0.0977,-0.0966,-0.0963,0,-0.0955,0,-0.0915,-0.0863,-0.0862,0,0,0,-0.1159,-0.1181,-0.1144,-0.1244,-0.1176,-0.1022,-0.1087,-0.097,-0.0959,-0.095,-0.0952,-0.0946,-0.0912,-0.0862,-0.0862,-0.0927,-0.0928,0,0,-0.1168,-0.1206,-0.1152,-0.1137,-0.1157,-0.1092,-0.1082,-0.0962,-0.0959,-0.0951,-0.0941,-0.091,-0.0861,-0.0861,-0.0925,-0.0927,0,0,0,-0.1206,-0.1212,-0.1175,-0.1144,-0.1114,-0.1088,-0.1077,-0.0963,-0.0953,-0.094,-0.0908,-0.0861,-0.086,-0.0924,-0.0926,-0.1114,0,0,0,-0.121,-0.1235,-0.118,-0.1199,-0.1117,-0.1029,-0.1081,-0.0961,-0.0946,-0.0909,-0.0861,-0.0859,-0.0922,-0.0925,-0.1105,-0.1154,0,0,0,-0.1248,-0.1238,-0.1228,-0.1202,-0.1142,-0.103,-0.1011,-0.0956,-0.0928,-0.0862,-0.0858,-0.0921,-0.0924,-0.1097,-0.1142,-0.0928,0,0,0,-0.128,-0.1317,-0.123,-0.1276,-0.1144,-0.117,-0.1011,-0.1005,-0.097,-0.086,-0.0922,-0.0926,-0.1095,-0.1134,-0.0925,-0.0605,-0.059,0,0,-0.1356,-0.1326,-0.1362,-0.1281,-0.1357,-0.1189,-0.1269,-0.1141,-0.1019,-0.0957,-0.0958,-0.1108,-0.1141,-0.0927,-0.0813,-0.079,0,0,0,-0.1408,-0.1435,-0.1445,-0.1458,-0.1436,-0.1427,-0.1307,-0.1233,-0.1155,-0.1014,-0.1128,-0.1143,-0.0999,-0.0804,-0.0789,-0.038,-0.0942,-0.0942,-0.0942,-0.1535,-0.1542,-0.163,-0.1644,-0.1664,-0.16,-0.1547,-0.1425,-0.1328,-0.1323,-0.1313,-0.1308,-0.1116,-0.1096,-0.0688,-0.1348,-0.1349,-0.135,-0.135,-0.1681,-0.1734,-0.1771,-0.1858,-0.1862,-0.1907,-0.1783,-0.1682,-0.1496,-0.1489,-0.1337,-0.104,-0.1088,-0.0658,-0.1362,-0.136,-0.1359,-0.1358,-0.1357,-0.1755,-0.1789,-0.1846,-0.1983,-0.2075,-0.2068,-0.2029,-0.1905,-0.1626,-0.1554,-0.1097,-0.1089,-0.0667,-0.1414,-0.1414,-0.1413,-0.1413,-0.1412,-0.1412,-0.1791,-0.1859,-0.1984,-0.2106,-0.2205,-0.2271,-0.2146,-0.1943,-0.148,-0.1226,-0.1219,-0.0614,-0.1321,-0.1268,-0.1402,-0.1404,-0.1405,-0.1406,-0.1407,-0.1851,-0.1892,-0.2081,-0.2201,-0.2411,-0.2404,-0.2279,-0.1654,-0.1309,-0.0934,-0.0232,-0.0938,-0.0773,-0.0782,-0.0713,-0.0694,-0.0694,-0.0693,-0.0693,-0.1882,-0.1918,-0.2184,-0.2392,-0.2561,-0.2495,-0.1992,-0.1248,-0.0252,0.03,0.0281,0.0334,0.0287,0.0515,0.0477,0.0572,0.0917,0.092,0.0922,-0.1921,-0.2013,-0.2198,-0.2427,-0.2647,-0.2503,-0.1844,-0.0622,0.0749,0.1015,0.0784,0.0716,0.0804,0.0698,0.1057,0.0971,0.1125,0,0]}],[{"header":{"parameterUnit":"m.s-1","parameterCategory":2,"la1":30.2992,"la2":30.254,"lo1":-89.0895,"lo2":-89.0443,"dy":0.0025,"dx":0.0025,"nx":19,"ny":19,"refTime":"2026-03-22T09:00:00:Z","depth":"2","parameterNumber":2,"parameterNumberName":"U-component_of_CURRENTS"},"data":[0,0,0,-0.271,-0.2709,-0.2712,-0.2712,-0.2757,-0.2757,0,0,0,0,0,0,0,0,0,0,0,-0.2694,-0.2693,-0.271,-0.2709,-0.2712,-0.2712,-0.2757,-0.2757,0,0,0,0,0,0,0,0,0,0,0,-0.2695,-0.2694,-0.2692,-0.2709,-0.2711,-0.2712,-0.2757,-0.2752,0,0,0,0,0,0,0,0,0,0,-0.2747,-0.2722,-0.2694,-0.2692,-0.2709,-0.2711,-0.2712,-0.2751,-0.2752,-0.2758,0,-0.2722,0,-0.2733,-0.2758,-0.2758,0,0,0,-0.2739,-0.2721,-0.2711,-0.2692,-0.2708,-0.2711,-0.2719,-0.2752,-0.2752,-0.2759,-0.2722,-0.2724,-0.2734,-0.2758,-0.2758,-0.289,-0.2892,0,0,-0.2739,-0.2716,-0.271,-0.271,-0.2661,-0.2719,-0.2718,-0.2752,-0.2739,-0.2722,-0.2725,-0.2735,-0.2758,-0.2758,-0.2889,-0.2891,0,0,0,-0.2718,-0.2716,-0.2706,-0.2708,-0.2701,-0.2718,-0.2718,-0.2738,-0.273,-0.2726,-0.2735,-0.2758,-0.2759,-0.2888,-0.289,-0.293,0,0,0,-0.272,-0.2702,-0.2705,-0.2695,-0.2699,-0.2715,-0.2703,-0.2728,-0.2732,-0.2735,-0.2758,-0.2759,-0.2886,-0.2889,-0.2926,-0.2897,0,0,0,-0.2703,-0.2702,-0.2684,-0.2693,-0.2681,-0.2715,-0.2711,-0.2729,-0.2737,-0.2758,-0.2759,-0.2885,-0.2888,-0.2922,-0.2893,-0.2789,0,0,0,-0.2708,-0.2661,-0.2683,-0.2662,-0.2681,-0.2733,-0.2711,-0.2757,-0.278,-0.2758,-0.2886,-0.2889,-0.2921,-0.289,-0.2789,-0.2519,-0.2499,0,0,-0.2659,-0.2654,-0.2654,-0.2674,-0.2711,-0.2738,-0.2824,-0.2836,-0.2835,-0.2879,-0.2882,-0.2927,-0.2893,-0.2789,-0.27,-0.2673,0,0,0,-0.2649,-0.2641,-0.2658,-0.2684,-0.2733,-0.28,-0.2847,-0.2896,-0.2959,-0.2855,-0.298,-0.2957,-0.2888,-0.2728,-0.271,-0.2904,-0.2904,-0.2903,-0.2903,-0.2574,-0.2629,-0.2642,-0.2711,-0.2762,-0.2871,-0.2923,-0.3,-0.3018,-0.3081,-0.3031,-0.3034,-0.2874,-0.2854,-0.3103,-0.3103,-0.3103,-0.3103,-0.3104,-0.2516,-0.2508,-0.2627,-0.2651,-0.2763,-0.2847,-0.3002,-0.3046,-0.3099,-0.3154,-0.3085,-0.2833,-0.2833,-0.3108,-0.3107,-0.3106,-0.3106,-0.3106,-0.3105,-0.2434,-0.2429,-0.2483,-0.2556,-0.2663,-0.2806,-0.284,-0.299,-0.3073,-0.3061,-0.2796,-0.2791,-0.2953,-0.3007,-0.3006,-0.3006,-0.3005,-0.3005,-0.3005,-0.2285,-0.2347,-0.2346,-0.2449,-0.2487,-0.2572,-0.2747,-0.2756,-0.2758,-0.2781,-0.2778,-0.2998,-0.3001,-0.2946,-0.2997,-0.2998,-0.2999,-0.3,-0.3,-0.2119,-0.217,-0.2149,-0.2173,-0.2252,-0.2207,-0.2403,-0.2358,-0.2387,-0.2306,-0.2583,-0.2596,-0.2517,-0.2531,-0.2465,-0.2387,-0.2387,-0.2386,-0.2386,-0.1994,-0.2025,-0.1973,-0.1964,-0.1973,-0.203,-0.1849,-0.1864,-0.2002,-0.2032,-0.2048,-0.2056,-0.2086,-0.1986,-0.2012,-0.1937,-0.1721,-0.1721,-0.172,-0.1889,-0.1894,-0.1812,-0.1836,-0.1842,-0.1777,-0.1542,-0.1384,-0.1452,-0.1704,-0.2038,-0.2321,-0.2377,-0.2408,-0.2293,-0.2321,-0.2214,0,0]},{"header":{"parameterUnit":"m.s-1","parameterCategory":2,"la1":30.2992,"la2":30.254,"lo1":-89.0895,"lo2":-89.0443,"dy":0.0025,"dx":0.0025,"nx":19,"ny":19,"refTime":"2026-03-22T09:00:00:Z","depth":"2","parameterNumber":3,"parameterNumberName":"V-component_of_CURRENTS"},"data":[0,0,0,-0.0385,-0.0383,-0.0216,-0.0215,0.0006,0.0007,0,0,0,0,0,0,0,0,0,0,0,-0.0449,-0.0449,-0.0386,-0.0382,-0.0216,-0.0215,0.0005,0.0007,0,0,0,0,0,0,0,0,0,0,0,-0.0449,-0.0449,-0.0448,-0.0382,-0.0216,-0.0215,0.0005,-0.0117,0,0,0,0,0,0,0,0,0,0,-0.0277,-0.0355,-0.0449,-0.0448,-0.0381,-0.0216,-0.0214,-0.0123,-0.0109,-0.0075,0,-0.0068,0,-0.0032,0.002,0.0021,0,0,0,-0.0358,-0.0366,-0.0316,-0.0448,-0.038,-0.0217,-0.0284,-0.0115,-0.01,-0.0058,-0.0065,-0.0056,-0.0029,0.0021,0.0022,0.0175,0.0175,0,0,-0.0368,-0.0416,-0.0326,-0.0307,-0.036,-0.029,-0.0279,-0.0106,-0.0104,-0.0064,-0.0051,-0.0025,0.0023,0.0024,0.0175,0.0175,0,0,0,-0.041,-0.0423,-0.0376,-0.0317,-0.029,-0.0285,-0.0273,-0.0111,-0.0095,-0.0048,-0.0022,0.0024,0.0026,0.0174,0.0175,0.0062,0,0,0,-0.0415,-0.0448,-0.0381,-0.0407,-0.0295,-0.0202,-0.0283,-0.0106,-0.0086,-0.0024,0.0024,0.0028,0.0174,0.0175,0.0065,0.0005,0,0,0,-0.0453,-0.0452,-0.0439,-0.041,-0.0347,-0.0204,-0.0176,-0.0101,-0.0071,0.0021,0.0028,0.0174,0.0175,0.0067,0.001,0.0051,0,0,0,-0.0496,-0.0495,-0.0441,-0.0436,-0.0349,-0.0275,-0.0177,-0.0106,-0.0038,0.0025,0.0174,0.0175,0.0068,0.0013,0.0053,0.0115,0.0112,0,0,-0.0518,-0.0499,-0.0496,-0.0443,-0.0426,-0.0294,-0.0242,-0.0113,-0.0011,0.0121,0.0126,0.0064,0.0011,0.0052,0.015,0.0145,0,0,0,-0.0518,-0.0527,-0.051,-0.0488,-0.0411,-0.0341,-0.0204,-0.0114,0.0019,0.003,0.0108,0.0079,0.0108,0.0151,0.0148,0.0178,0.0178,0.0177,0.0177,-0.0613,-0.0579,-0.0594,-0.0547,-0.05,-0.036,-0.027,-0.0116,-0.0028,0.0025,0.002,0.0015,0.0059,0.0058,0.0065,0.0064,0.0064,0.0064,0.0064,-0.0683,-0.069,-0.0671,-0.0672,-0.0596,-0.0536,-0.033,-0.0232,-0.0067,-0.0014,0.0021,0.0069,0.0048,0.0055,0.0057,0.0058,0.0059,0.006,0.006,-0.0746,-0.0744,-0.0755,-0.0773,-0.0756,-0.0644,-0.0544,-0.0371,-0.0179,-0.0142,-0.0018,-0.0015,-0.005,-0.0111,-0.0111,-0.0111,-0.0111,-0.0111,-0.0111,-0.079,-0.0801,-0.0857,-0.0875,-0.0901,-0.0858,-0.0656,-0.0518,-0.0276,-0.0123,-0.012,-0.0042,-0.0036,-0.0056,-0.0113,-0.0112,-0.0112,-0.0112,-0.0112,-0.0827,-0.0848,-0.0933,-0.0983,-0.104,-0.1011,-0.0825,-0.0498,-0.0326,-0.019,-0.0062,-0.0063,-0.0005,0.0,-0.0015,-0.0058,-0.0058,-0.0058,-0.0058,-0.0857,-0.0874,-0.0998,-0.1095,-0.1148,-0.1079,-0.0825,-0.0488,-0.0188,-0.0041,-0.0042,-0.0016,-0.0017,0.0042,0.0047,0.0033,0.0002,0.0002,0.0002,-0.0887,-0.0927,-0.102,-0.1126,-0.1209,-0.1114,-0.0828,-0.0375,-0.0011,-0.0,-0.0078,-0.0045,-0.0007,-0.001,0.0086,0.009,0.0071,0,0]}],[{"header":{"parameterUnit":"m.s-1","parameterCategory":2,"la1":30.2992,"la2":30.254,"lo1":-89.0895,"lo2":-89.0443,"dy":0.0025,"dx":0.0025,"nx":19,"ny":19,"refTime":"2026-03-22T09:00:00:Z","depth":"4","parameterNumber":2,"parameterNumberName":"U-component_of_CURRENTS"},"data":[0,0,0,-0.1754,-0.1758,-0.1992,-0.1993,-0.2166,-0.2167,0,0,0,0,0,0,0,0,0,0,0,-0.1683,-0.1685,-0.1754,-0.1759,-0.1992,-0.1993,-0.2166,-0.2167,0,0,0,0,0,0,0,0,0,0,0,-0.1683,-0.1685,-0.1687,-0.176,-0.1991,-0.1993,-0.2166,-0.2025,0,0,0,0,0,0,0,0,0,0,-0.1816,-0.1758,-0.1684,-0.1687,-0.1761,-0.1991,-0.1993,-0.202,-0.2034,-0.202,0,-0.2062,0,-0.2105,-0.2174,-0.2175,0,0,0,-0.1775,-0.1747,-0.1809,-0.1687,-0.1763,-0.1991,-0.1891,-0.2029,-0.2044,-0.2037,-0.2065,-0.2072,-0.2107,-0.2175,-0.2176,-0.2327,-0.2328,0,0,-0.1763,-0.1724,-0.1799,-0.1819,-0.1829,-0.1884,-0.1898,-0.204,-0.2054,-0.2066,-0.2077,-0.211,-0.2176,-0.2177,-0.2326,-0.2327,0,0,0,-0.1714,-0.1715,-0.1778,-0.1811,-0.1856,-0.189,-0.1907,-0.2049,-0.2071,-0.2079,-0.2112,-0.2176,-0.2178,-0.2325,-0.2326,-0.2343,0,0,0,-0.1707,-0.1686,-0.1772,-0.1751,-0.1854,-0.1971,-0.1913,-0.2062,-0.2079,-0.2111,-0.2177,-0.2179,-0.2324,-0.2326,-0.2341,-0.2303,0,0,0,-0.1672,-0.1682,-0.1711,-0.1749,-0.1842,-0.197,-0.2002,-0.2068,-0.2097,-0.2175,-0.2179,-0.2324,-0.2326,-0.2339,-0.2301,-0.2284,0,0,0,-0.1621,-0.1682,-0.1711,-0.18,-0.1839,-0.1999,-0.2002,-0.2133,-0.2209,-0.2177,-0.2324,-0.2326,-0.2338,-0.23,-0.2284,-0.1987,0,0,0,-0.1667,-0.1686,-0.1743,-0.1774,-0.1922,-0.1968,-0.2107,-0.2204,-0.2227,-0.2269,-0.2275,-0.2342,-0.2301,-0.2284,-0.2111,0,0,0,0,-0.1739,-0.1779,-0.1834,-0.1927,-0.2033,-0.2115,-0.222,-0.2248,-0.2329,-0.2278,-0.2378,-0.2352,-0.234,-0.2169,-0.2336,-0.2336,-0.2336,-0.2335,-0.2335,-0.1722,-0.1806,-0.1904,-0.2018,-0.211,-0.2235,-0.2289,-0.2339,-0.2379,-0.2419,-0.2395,-0.2428,-0.2254,-0.2453,-0.2453,-0.2453,-0.2453,-0.2453,-0.2453,-0.1763,-0.1803,-0.1924,-0.2048,-0.2143,-0.2251,-0.234,-0.2376,-0.2416,-0.2443,-0.2433,-0.2236,-0.2456,-0.2455,-0.2455,-0.2455,-0.2454,-0.2454,-0.2454,-0.1709,-0.1736,-0.1843,-0.199,-0.2107,-0.2231,-0.2253,-0.2347,-0.24,-0.2408,-0.2224,-0.2422,-0.2383,-0.2423,-0.2423,-0.2423,-0.2422,-0.2422,-0.2422,-0.1574,-0.1685,-0.1756,-0.1921,-0.199,-0.2077,-0.2204,-0.221,-0.2304,-0.218,-0.2412,-0.2416,-0.2417,-0.2382,-0.2419,-0.242,-0.242,-0.242,-0.2421,-0.1483,-0.1536,-0.1617,-0.169,-0.1822,-0.1857,-0.202,-0.1989,-0.1971,-0.1906,-0.205,-0.2069,-0.2017,-0.2027,-0.1976,-0.1894,-0.189,-0.1886,0,-0.138,-0.1425,-0.1489,-0.1538,-0.1562,-0.1704,-0.16,-0.1659,-0.174,-0.1684,-0.1983,-0.2148,-0.2159,-0.2107,-0.2109,-0.205,0,0,0,-0.1307,-0.1339,-0.134,-0.1426,-0.1436,-0.1443,-0.156,-0.15,-0.1743,-0.1638,-0.1792,-0.1817,-0.2192,-0.241,-0.2375,-0.2377,-0.2316,0,0]},{"header":{"parameterUnit":"m.s-1","parameterCategory":2,"la1":30.2992,"la2":30.254,"lo1":-89.0895,"lo2":-89.0443,"dy":0.0025,"dx":0.0025,"nx":19,"ny":19,"refTime":"2026-03-22T09:00:00:Z","depth":"4","parameterNumber":3,"parameterNumberName":"V-component_of_CURRENTS"},"data":[0,0,0,-0.0326,-0.0325,-0.0218,-0.0217,-0.0031,-0.003,0,0,0,0,0,0,0,0,0,0,0,-0.0363,-0.0363,-0.0326,-0.0325,-0.0218,-0.0217,-0.0032,-0.003,0,0,0,0,0,0,0,0,0,0,0,-0.0363,-0.0363,-0.0362,-0.0325,-0.0218,-0.0217,-0.0032,-0.0119,0,0,0,0,0,0,0,0,0,0,-0.0226,-0.0281,-0.0363,-0.0362,-0.0324,-0.0219,-0.0217,-0.0123,-0.0113,-0.0073,0,-0.0074,0,-0.0058,-0.0019,-0.0018,0,0,0,-0.0299,-0.0289,-0.026,-0.0362,-0.0324,-0.0219,-0.0259,-0.0118,-0.0107,-0.006,-0.0071,-0.0065,-0.0054,-0.0017,-0.0017,0.0129,0.0129,0,0,-0.0305,-0.0335,-0.0269,-0.0254,-0.0317,-0.0263,-0.0256,-0.0111,-0.0108,-0.0071,-0.006,-0.0051,-0.0016,-0.0015,0.0128,0.0129,0,0,0,-0.0339,-0.034,-0.0314,-0.0262,-0.0252,-0.026,-0.0253,-0.0114,-0.0106,-0.0058,-0.0049,-0.0015,-0.0013,0.0128,0.0129,0.0009,0,0,0,-0.0342,-0.0361,-0.0318,-0.0333,-0.0256,-0.019,-0.0259,-0.0116,-0.0099,-0.005,-0.0015,-0.0012,0.0128,0.0128,0.0012,-0.006,0,0,0,-0.0364,-0.0363,-0.0358,-0.0335,-0.0301,-0.0192,-0.0175,-0.0112,-0.0094,-0.0018,-0.0011,0.0127,0.0128,0.0014,-0.0054,-0.0032,0,0,0,-0.0387,-0.0392,-0.0359,-0.036,-0.0302,-0.0248,-0.0176,-0.0119,-0.0061,-0.0014,0.0128,0.0128,0.0014,-0.0051,-0.003,-0.0025,0,0,0,-0.0406,-0.0395,-0.0395,-0.0363,-0.0356,-0.026,-0.0223,-0.0119,-0.0029,0.0087,0.0091,0.0011,-0.0054,-0.0031,0.0023,0,0,0,0,-0.0408,-0.0419,-0.0407,-0.0397,-0.0341,-0.0301,-0.0189,-0.0126,-0.0021,0.0005,0.0061,0.0025,0.0042,0.0055,0.0132,0.0132,0.0132,0.0132,0.0132,-0.0472,-0.0453,-0.047,-0.0444,-0.041,-0.0313,-0.0259,-0.0144,-0.0055,-0.0019,-0.0036,-0.0053,-0.0042,0.0021,0.002,0.002,0.0019,0.0019,0.0019,-0.053,-0.0542,-0.0535,-0.0549,-0.0503,-0.0462,-0.0323,-0.0253,-0.0144,-0.0082,-0.0058,-0.0027,0.0008,0.001,0.0012,0.0013,0.0014,0.0015,0.0015,-0.0576,-0.0581,-0.0603,-0.0636,-0.0641,-0.0564,-0.0511,-0.0397,-0.0257,-0.0245,-0.0152,-0.0106,-0.0136,-0.0206,-0.0206,-0.0206,-0.0207,-0.0207,-0.0207,-0.0605,-0.0627,-0.0687,-0.0724,-0.0758,-0.0741,-0.0616,-0.052,-0.0376,-0.0282,-0.0263,-0.0127,-0.012,-0.0144,-0.021,-0.021,-0.0209,-0.0209,-0.0209,-0.0632,-0.0656,-0.0746,-0.0803,-0.0873,-0.0854,-0.0758,-0.0538,-0.0439,-0.0331,-0.0262,-0.0258,-0.0204,-0.0194,-0.022,-0.0311,-0.0311,-0.0311,0,-0.0648,-0.0667,-0.0792,-0.0889,-0.0937,-0.0909,-0.0762,-0.0622,-0.0441,-0.0448,-0.0447,-0.0379,-0.0372,-0.032,-0.0311,-0.0347,0,0,0,-0.0664,-0.0705,-0.0795,-0.09,-0.0968,-0.0815,-0.0712,-0.0627,-0.0494,-0.0354,-0.0316,-0.0315,-0.0272,-0.0221,-0.0127,-0.0118,-0.0152,0,0]}]]